Flag for Papua New Guinea Weather past 2 weeks in Lae, Papua New Guinea

Now
79 °F

Mostly cloudy.


Feels Like: 82 °F
Forecast: 72 / 91 °F
Wind: 2 mph from Southeast

Location: Moresby

Current Time: Apr 28, 2015 at 2:19:36 AM

Latest Report: Apr 28, 2015 at 2:00 AM


Visibility: N/A

Pressure: 29.80 "Hg

Humidity: 89%

Dew point: 75 °F

Location of LaeLocation

Historic Weather in Lae — Graph

°F

Lae temperature yesterday

Maximum temperature yesterday: 88 °F (at 2:00 PM)
Minimum temperature yesterday: 77 °F (at 6:00 AM)
Average temperature yesterday: 82 °F

Past Weeks' High & Low Weather Summary

 TemperatureHumidityPressure
High90 °F (Apr 13, 12:00 PM)100% (Apr 15, 7:00 AM)29.92 "Hg (Apr 15, 7:00 AM)
Low73 °F (Apr 18, 6:00 AM)59% (Apr 13, 12:00 PM)29.68 "Hg (Apr 17, 3:00 PM)
Average80 °F83%29.80 "Hg
* Reported Apr 13 1:00 AM — Apr 28 1:00 AM, Lae, Weather by CustomWeather, © 2015

Note: Actual official high and low records may vary slightly from our data, if they occured in-between our weather recording intervals... More about our weather records

Advertising

Lae weather history for previous 24 hours

 ConditionsComfort  
Time TempWeatherWind HumidityBarometerVisibility
1:00 AM
Tue, Apr 28
79 °FMostly cloudy.3 mph89%29.83 "HgN/A
12:00 AM79 °FPartly cloudy.3 mph89%29.86 "HgN/A
11:00 PM
Mon, Apr 27
79 °FPassing clouds.3 mph89%29.86 "HgN/A
10:00 PM81 °FPassing clouds.2 mph79%29.86 "HgN/A
9:00 PM81 °FPassing clouds.3 mph79%29.86 "HgN/A
8:00 PM81 °FPassing clouds.3 mph79%29.83 "HgN/A
7:00 PM81 °FPassing clouds.6 mph79%29.80 "HgN/A
6:00 PM82 °FCloudy.9 mph74%29.80 "HgN/A
5:00 PM82 °FWarm.13 mph62%29.77 "HgN/A
4:00 PM86 °FOvercast.14 mph70%29.74 "HgN/A
3:00 PM86 °FOvercast.12 mph70%29.74 "HgN/A
2:00 PM88 °FOvercast.6 mph66%29.77 "HgN/A
1:00 PM86 °FOvercast.7 mph66%29.77 "HgN/A
12:00 PM86 °FPartly sunny.9 mph66%29.80 "HgN/A
11:00 AM86 °FScattered clouds.9 mph66%29.83 "HgN/A
9:00 AM81 °FPartly sunny.7 mph79%29.86 "HgN/A
8:00 AM81 °FBroken clouds.3 mph79%29.86 "HgN/A
7:00 AMN/AMore clouds than sun.No windN/AN/AN/A
6:00 AM77 °FMostly cloudy.No wind79%29.83 "HgN/A
4:00 AM79 °FPassing clouds.7 mph89%29.80 "HgN/A
3:00 AM79 °FPartly cloudy.3 mph79%29.80 "HgN/A
2:00 AM79 °FPassing clouds.6 mph79%29.83 "HgN/A
Weather by CustomWeather, © 2015

See weather overviewHow to use our weather pages